TimeCST,TemperatureF,Dew PointF,Humidity,Sea Level PressureIn,VisibilityMPH,Wind Direction,Wind SpeedMPH,Gust SpeedMPH,PrecipitationIn,Events,Conditions,WindDirDegrees,DateUTC
12:56 AM,23.0,19.0,85,30.32,10.0,SSE,12.7,-,N/A,,Overcast,150,2014-02-17 06:56:00
1:56 AM,26.1,19.0,75,30.32,10.0,South,16.1,-,N/A,,Overcast,170,2014-02-17 07:56:00
2:56 AM,27.0,19.9,75,30.30,10.0,South,15.0,23.0,N/A,,Overcast,170,2014-02-17 08:56:00
3:56 AM,27.0,21.0,78,30.29,10.0,South,18.4,-,0.00,,Overcast,170,2014-02-17 09:56:00
4:56 AM,26.1,21.9,84,30.27,8.0,SSE,20.7,-,0.00,Snow,Light Snow,150,2014-02-17 10:56:00
5:56 AM,26.1,21.9,84,30.23,7.0,SSE,17.3,28.8,0.00,,Overcast,160,2014-02-17 11:56:00
6:18 AM,26.6,21.2,80,30.13,7.0,SSE,24.2,31.1,0.00,,Overcast,150,2014-02-17 12:18:00
6:56 AM,26.1,21.0,81,30.18,4.0,SSE,24.2,31.1,0.00,,Overcast,160,2014-02-17 12:56:00
7:46 AM,24.8,19.4,80,30.07,3.0,SSE,24.2,35.7,0.00,Snow,Blowing Snow,160,2014-02-17 13:46:00
7:56 AM,25.0,19.9,81,30.14,1.8,SSE,27.6,35.7,0.00,Snow,Light Snow,160,2014-02-17 13:56:00
8:20 AM,24.8,21.2,86,30.05,3.0,SSE,24.2,31.1,0.00,Snow,Light Snow,160,2014-02-17 14:20:00
8:32 AM,24.8,21.2,86,30.04,2.5,SSE,24.2,33.4,0.00,,Overcast,150,2014-02-17 14:32:00
8:56 AM,25.0,21.0,85,30.11,1.8,SSE,26.5,36.8,0.00,,Overcast,160,2014-02-17 14:56:00
9:56 AM,25.0,19.9,81,30.08,1.5,SSE,27.6,38.0,0.00,Snow,Light Snow,160,2014-02-17 15:56:00
10:13 AM,24.8,21.2,86,29.99,2.0,SSE,24.2,38.0,N/A,Snow,Blowing Snow,160,2014-02-17 16:13:00
10:25 AM,24.8,19.4,80,29.98,1.8,SSE,29.9,40.3,0.00,Snow,Light Snow,160,2014-02-17 16:25:00
10:56 AM,25.0,19.9,81,30.04,1.2,SSE,27.6,39.1,0.00,Snow,Light Snow,150,2014-02-17 16:56:00
11:04 AM,24.8,19.4,80,29.97,2.0,SSE,24.2,36.8,0.00,Snow,Light Snow,160,2014-02-17 17:04:00
11:56 AM,24.1,19.9,84,30.01,5.0,SSE,23.0,33.4,0.00,,Overcast,150,2014-02-17 17:56:00
12:05 PM,24.8,19.4,80,29.92,1.5,SSE,24.2,33.4,0.00,Snow,Light Snow,150,2014-02-17 18:05:00
12:09 PM,24.8,19.4,80,29.92,0.8,SSE,26.5,33.4,0.00,Snow,Light Snow,150,2014-02-17 18:09:00
12:17 PM,24.8,19.4,80,29.91,0.2,SSE,26.5,33.4,0.00,Fog-Snow,Snow,160,2014-02-17 18:17:00
12:28 PM,23.0,21.2,93,29.91,0.2,SSE,24.2,35.7,0.00,Fog-Snow,Heavy Snow,160,2014-02-17 18:28:00
12:56 PM,24.1,21.0,88,29.96,0.2,SSE,19.6,26.5,0.00,Fog-Snow,Heavy Snow,160,2014-02-17 18:56:00
1:10 PM,24.8,21.2,86,29.87,0.2,SSE,23.0,33.4,0.00,Fog-Snow,Snow,160,2014-02-17 19:10:00
1:27 PM,24.8,21.2,86,29.86,0.5,SSE,21.9,29.9,0.00,Fog-Snow,Snow,150,2014-02-17 19:27:00
1:56 PM,24.1,19.9,84,29.92,0.8,SSE,18.4,33.4,0.00,Snow,Light Snow,150,2014-02-17 19:56:00
2:31 PM,23.0,19.4,86,29.83,1.0,SSE,20.7,28.8,0.00,Snow,Light Snow,150,2014-02-17 20:31:00
2:39 PM,23.0,19.4,86,29.83,1.2,SSE,20.7,28.8,0.00,Snow,Light Snow,150,2014-02-17 20:39:00
2:50 PM,23.0,19.4,86,29.82,0.8,SSE,19.6,28.8,0.00,Snow,Light Snow,150,2014-02-17 20:50:00
2:56 PM,24.1,21.0,88,29.88,0.8,SSE,21.9,27.6,0.00,Snow,Light Snow,150,2014-02-17 20:56:00
3:13 PM,23.0,21.2,93,29.80,0.5,SSE,21.9,27.6,0.00,Fog-Snow,Snow,150,2014-02-17 21:13:00
3:49 PM,23.0,21.2,93,29.77,0.5,SE,21.9,26.5,0.00,Fog-Snow,Snow,130,2014-02-17 21:49:00
3:51 PM,23.0,19.4,86,29.77,0.2,SE,20.7,26.5,0.00,Fog-Snow,Snow,130,2014-02-17 21:51:00
3:56 PM,23.0,21.0,92,29.84,0.2,SE,16.1,26.5,0.00,Fog-Snow,Snow,130,2014-02-17 21:56:00
4:19 PM,21.2,19.4,93,29.74,0.5,ESE,15.0,-,0.00,Fog-Snow,Snow,120,2014-02-17 22:19:00
4:39 PM,21.2,19.4,93,29.74,0.2,SE,19.6,26.5,0.00,Fog-Snow,Heavy Snow,130,2014-02-17 22:39:00
4:56 PM,21.9,21.0,96,29.82,0.2,SE,16.1,21.9,0.00,Fog-Snow,Heavy Snow,140,2014-02-17 22:56:00
5:34 PM,21.2,21.2,100,29.74,0.8,SE,13.8,-,0.00,Snow,Light Snow,130,2014-02-17 23:34:00
5:40 PM,21.2,19.4,93,29.74,1.2,SE,16.1,-,0.00,Snow,Light Snow,130,2014-02-17 23:40:00
5:56 PM,23.0,19.9,88,29.81,1.8,ESE,13.8,-,0.00,Snow,Light Snow,120,2014-02-17 23:56:00
6:09 PM,23.0,21.2,93,29.73,3.0,ESE,15.0,-,0.00,Snow,Light Snow,120,2014-02-18 00:09:00
6:37 PM,23.0,21.2,93,29.72,2.5,SE,13.8,-,0.00,Snow,Light Snow,130,2014-02-18 00:37:00
6:39 PM,23.0,21.2,93,29.73,3.0,SE,11.5,-,0.00,Snow,Light Snow,140,2014-02-18 00:39:00
6:47 PM,23.0,21.2,93,29.73,2.5,SE,13.8,-,0.00,Snow,Light Snow,130,2014-02-18 00:47:00
6:56 PM,23.0,21.0,92,29.80,2.5,SE,10.4,-,0.00,Snow,Light Snow,130,2014-02-18 00:56:00
7:06 PM,23.0,21.2,93,29.72,1.8,SE,10.4,-,0.00,Snow,Light Snow,130,2014-02-18 01:06:00
7:20 PM,24.8,21.2,86,29.72,1.0,ESE,10.4,-,0.00,Snow,Light Snow,120,2014-02-18 01:20:00
7:33 PM,24.8,21.2,86,29.72,1.5,ESE,10.4,-,0.00,Snow,Light Snow,120,2014-02-18 01:33:00
7:56 PM,24.1,21.9,91,29.79,1.8,SE,9.2,-,0.00,Snow,Light Snow,130,2014-02-18 01:56:00
8:09 PM,24.8,21.2,86,29.72,2.5,SE,6.9,-,0.00,Snow,Light Snow,130,2014-02-18 02:09:00
8:52 PM,24.8,21.2,86,29.72,1.2,Calm,Calm,-,0.02,Snow,Light Snow,0,2014-02-18 02:52:00
8:56 PM,24.1,21.9,91,29.79,1.5,Calm,Calm,-,0.02,Snow,Light Snow,0,2014-02-18 02:56:00
9:04 PM,24.8,21.2,86,29.72,2.0,Calm,Calm,-,0.00,Snow,Light Snow,0,2014-02-18 03:04:00
9:51 PM,23.0,21.2,93,29.72,2.0,NNE,3.5,-,0.00,Snow,Light Snow,20,2014-02-18 03:51:00
9:56 PM,23.0,21.9,96,29.79,2.0,NNE,3.5,-,0.00,Snow,Light Snow,20,2014-02-18 03:56:00
10:16 PM,23.0,21.2,93,29.72,2.5,North,3.5,-,0.00,Snow,Light Snow,360,2014-02-18 04:16:00
10:41 PM,21.2,21.2,100,29.72,4.0,NNW,4.6,-,0.01,Snow,Light Snow,340,2014-02-18 04:41:00
10:56 PM,21.9,19.9,92,29.79,5.0,NNE,4.6,-,0.01,Snow,Light Snow,20,2014-02-18 04:56:00
11:16 PM,21.2,19.4,93,29.73,5.0,NNW,5.8,-,0.00,Snow,Light Snow,330,2014-02-18 05:16:00
11:39 PM,19.4,19.4,100,29.73,6.0,NNW,5.8,-,0.00,Snow,Light Snow,330,2014-02-18 05:39:00
11:56 PM,19.0,18.0,96,29.82,9.0,NW,5.8,-,0.00,Snow,Light Snow,320,2014-02-18 05:56:00